THY70G LTFM-EGLL

Flight info

Callsign THY70G
Flight time N/A
Altitude 36000
Route TUDBU1D/35L TUDBU Q26 ETUBA DCT NAVOD DCT INVED DCT BEGLA DCT DEXIT DCT INBED DCT BOMBI DCT ADKUV DCT BUB L608 LOGAN
Aircraft A21N/M-SDE2E3FGHIRWXY/LB1

Departure

Time 2026-05-07 15:15
Airport İstanbul Airport (LTFM)

Arrival

Time N/A
Airport London Heathrow Airport (EGLL)
Time Latitude Longitude Altitude Speed Heading
2026-05-07 14:45 41.26067 28.73603 339 ft 0 kts 107°
2026-05-07 15:04 41.26073 28.73574 339 ft 4 kts 107°
2026-05-07 15:04 41.26081 28.73540 334 ft 4 kts 106°
2026-05-07 15:05 41.26087 28.73512 339 ft 4 kts 97°
2026-05-07 15:05 41.26082 28.73487 334 ft 4 kts 30°
2026-05-07 15:05 41.26059 28.73476 339 ft 4 kts 17°
2026-05-07 15:05 41.26054 28.73474 339 ft 1 kts 17°
2026-05-07 15:10 41.26063 28.73477 339 ft 3 kts 17°
2026-05-07 15:10 41.26087 28.73487 339 ft 5 kts 17°
2026-05-07 15:11 41.26126 28.73503 336 ft 7 kts 17°
2026-05-07 15:11 41.26179 28.73517 339 ft 9 kts 354°
2026-05-07 15:11 41.26222 28.73459 339 ft 10 kts 277°
2026-05-07 15:11 41.26220 28.73354 338 ft 12 kts 269°
2026-05-07 15:12 41.26219 28.73233 337 ft 14 kts 269°
2026-05-07 15:12 41.26217 28.73102 339 ft 14 kts 269°
2026-05-07 15:12 41.26215 28.72965 337 ft 16 kts 269°
2026-05-07 15:12 41.26213 28.72813 339 ft 13 kts 269°
2026-05-07 15:13 41.26212 28.72692 339 ft 13 kts 269°
2026-05-07 15:13 41.26210 28.72596 339 ft 6 kts 269°
2026-05-07 15:13 41.26217 28.72536 339 ft 7 kts 312°
2026-05-07 15:13 41.26269 28.72524 336 ft 8 kts 356°
2026-05-07 15:14 41.26336 28.72522 337 ft 11 kts 359°
2026-05-07 15:14 41.26589 28.72517 339 ft 71 kts 359°
2026-05-07 15:14 41.27312 28.72501 335 ft 133 kts 359°
2026-05-07 15:14 41.28396 28.72476 366 ft 175 kts 360°
2026-05-07 15:15 41.29617 28.72436 926 ft 174 kts
2026-05-07 15:15 41.30823 28.72455 1594 ft 173 kts
2026-05-07 15:15 41.32035 28.72474 2296 ft 175 kts
2026-05-07 15:15 41.33307 28.72488 2811 ft 193 kts 359°
2026-05-07 15:16 41.34716 28.72500 3335 ft 210 kts 360°
2026-05-07 15:16 41.36262 28.72517 3746 ft 235 kts 359°
2026-05-07 15:16 41.37980 28.72450 4221 ft 257 kts 350°
2026-05-07 15:16 41.39707 28.71699 4902 ft 265 kts 333°
2026-05-07 15:17 41.41373 28.70625 5774 ft 268 kts 332°
2026-05-07 15:17 41.43078 28.69499 6463 ft 282 kts 332°
2026-05-07 15:17 41.44886 28.68315 6864 ft 303 kts 332°
2026-05-07 15:17 41.46846 28.67047 7309 ft 321 kts 332°
2026-05-07 15:18 41.48826 28.65771 7986 ft 328 kts 333°
2026-05-07 15:18 41.50948 28.64409 8782 ft 333 kts 333°
2026-05-07 15:18 41.53048 28.63062 9575 ft 337 kts 333°
2026-05-07 15:18 41.55173 28.61701 10361 ft 340 kts 333°
2026-05-07 15:19 41.57264 28.60208 11145 ft 342 kts 325°
2026-05-07 15:19 41.59022 28.58113 11910 ft 344 kts 313°
2026-05-07 15:19 41.60643 28.55734 12640 ft 348 kts 312°
2026-05-07 15:19 41.62266 28.53312 13374 ft 350 kts 312°
2026-05-07 15:20 41.63904 28.50879 14074 ft 353 kts 312°
2026-05-07 15:20 41.65554 28.48436 14767 ft 356 kts 312°
2026-05-07 15:20 41.67124 28.45842 15462 ft 360 kts 303°
2026-05-07 15:20 41.68272 28.42847 16164 ft 363 kts 295°
2026-05-07 15:21 41.69268 28.39776 16820 ft 365 kts 294°
2026-05-07 15:21 41.70272 28.36640 17475 ft 368 kts 294°
2026-05-07 15:21 41.71293 28.33473 18110 ft 372 kts 295°
2026-05-07 15:21 41.72332 28.30274 18748 ft 374 kts 295°
2026-05-07 15:22 41.73375 28.27072 19358 ft 376 kts 295°
2026-05-07 15:22 41.74425 28.23837 19939 ft 379 kts 295°
2026-05-07 15:22 41.75468 28.20626 20509 ft 381 kts 295°
2026-05-07 15:22 41.76531 28.17361 21062 ft 383 kts 295°
2026-05-07 15:23 41.77587 28.14105 21598 ft 386 kts 295°
2026-05-07 15:23 41.78664 28.10789 22137 ft 388 kts 295°
2026-05-07 15:23 41.79934 28.07588 22627 ft 388 kts 305°
2026-05-07 15:23 41.81522 28.04650 23117 ft 390 kts 308°
2026-05-07 15:24 41.83170 28.01747 23600 ft 392 kts 308°
2026-05-07 15:24 41.84828 27.98824 24081 ft 395 kts 308°
2026-05-07 15:24 41.85936 27.96867 24395 ft 396 kts 308°
2026-05-07 15:24 41.88141 27.92942 25020 ft 398 kts 308°
2026-05-07 15:25 41.89812 27.89961 25460 ft 400 kts 308°
2026-05-07 15:25 41.91484 27.86970 25890 ft 402 kts 308°
2026-05-07 15:25 41.92604 27.84967 26183 ft 404 kts 308°
2026-05-07 15:25 41.94295 27.81936 26585 ft 406 kts 308°
2026-05-07 15:26 41.95998 27.78896 27010 ft 408 kts 309°
2026-05-07 15:26 41.97871 27.76029 27417 ft 408 kts 315°
2026-05-07 15:26 41.99862 27.73292 27805 ft 410 kts 315°
2026-05-07 15:26 42.01871 27.70559 28148 ft 412 kts 315°
2026-05-07 15:27 42.03888 27.67811 28492 ft 414 kts 315°
2026-05-07 15:27 42.05909 27.65048 28843 ft 416 kts 315°
2026-05-07 15:27 42.07944 27.62259 29183 ft 417 kts 315°
2026-05-07 15:27 42.09956 27.59495 29511 ft 419 kts 315°
2026-05-07 15:28 42.12002 27.56685 29824 ft 420 kts 314°
2026-05-07 15:28 42.14014 27.53920 30181 ft 421 kts 315°
2026-05-07 15:28 42.16061 27.51104 30606 ft 419 kts 315°
2026-05-07 15:28 42.18100 27.48298 30998 ft 417 kts 315°
2026-05-07 15:29 42.20133 27.45501 31368 ft 416 kts 315°
2026-05-07 15:29 42.22153 27.42709 31697 ft 416 kts 314°
2026-05-07 15:29 42.24175 27.39916 31998 ft 415 kts 314°
2026-05-07 15:29 42.26194 27.37122 32298 ft 416 kts 314°
2026-05-07 15:30 42.28166 27.34386 32600 ft 415 kts 314°
2026-05-07 15:30 42.30190 27.31579 32881 ft 414 kts 314°
2026-05-07 15:30 42.32205 27.28786 33164 ft 414 kts 314°
2026-05-07 15:30 42.34211 27.26001 33426 ft 414 kts 314°
2026-05-07 15:31 42.36226 27.23199 33703 ft 413 kts 314°
2026-05-07 15:31 42.38230 27.20411 33950 ft 413 kts 314°
2026-05-07 15:31 42.40227 27.17629 34178 ft 413 kts 314°
2026-05-07 15:31 42.42213 27.14862 34379 ft 412 kts 314°
2026-05-07 15:32 42.44211 27.12077 34599 ft 412 kts 314°
2026-05-07 15:32 42.46213 27.09280 34769 ft 412 kts 314°
2026-05-07 15:32 42.48214 27.06480 34930 ft 412 kts 314°
2026-05-07 15:32 42.50191 27.03710 35080 ft 413 kts 314°
2026-05-07 15:33 42.52185 27.00897 35272 ft 413 kts 313°
2026-05-07 15:33 42.54158 26.98100 35442 ft 413 kts 314°
2026-05-07 15:33 42.56164 26.95299 35608 ft 413 kts 314°
2026-05-07 15:33 42.58166 26.92507 35775 ft 414 kts 314°
2026-05-07 15:34 42.60144 26.89728 35944 ft 413 kts 313°
2026-05-07 15:34 42.62135 26.86887 36096 ft 413 kts 313°
2026-05-07 15:34 42.66130 26.81268 36115 ft 413 kts 313°
2026-05-07 15:35 42.70141 26.75633 36103 ft 414 kts 313°
2026-05-07 15:35 42.74107 26.70017 36094 ft 414 kts 313°
2026-05-07 15:36 42.78101 26.64349 36085 ft 414 kts 313°
2026-05-07 15:36 42.81950 26.58512 36081 ft 414 kts 305°
2026-05-07 15:37 42.85125 26.51951 36072 ft 414 kts 303°
2026-05-07 15:37 42.88230 26.45397 36070 ft 414 kts 303°
2026-05-07 15:38 42.91352 26.38822 36064 ft 415 kts 303°
2026-05-07 15:38 42.94481 26.32227 36053 ft 415 kts 303°
2026-05-07 15:39 42.97618 26.25610 36051 ft 415 kts 303°
2026-05-07 15:39 43.00570 26.19365 36039 ft 416 kts 303°
2026-05-07 15:40 43.03518 26.13109 36039 ft 415 kts 302°
2026-05-07 15:40 43.06622 26.06509 36028 ft 415 kts 302°
2026-05-07 15:41 43.09762 25.99822 36026 ft 414 kts 302°
2026-05-07 15:41 43.12864 25.93178 36027 ft 417 kts 301°
2026-05-07 15:42 43.15975 25.86465 36020 ft 417 kts 302°
2026-05-07 15:42 43.19102 25.79764 36019 ft 417 kts 302°
2026-05-07 15:43 43.22211 25.73062 36024 ft 417 kts 301°
2026-05-07 15:43 43.25327 25.66402 36024 ft 418 kts 302°
2026-05-07 15:44 43.28457 25.59667 36020 ft 418 kts 301°
2026-05-07 15:44 43.31564 25.52932 36020 ft 418 kts 301°
2026-05-07 15:45 43.34674 25.46196 36018 ft 418 kts 301°
2026-05-07 15:45 43.37776 25.39444 36028 ft 418 kts 301°
2026-05-07 15:46 43.42431 25.29303 36032 ft 419 kts 301°
2026-05-07 15:47 43.45540 25.22504 36031 ft 419 kts 301°
2026-05-07 15:47 43.48643 25.15693 36031 ft 419 kts 301°
2026-05-07 15:48 43.51716 25.08923 36033 ft 420 kts 301°
2026-05-07 15:48 43.54811 25.02107 36030 ft 420 kts 301°
2026-05-07 15:49 43.57906 24.95286 36031 ft 421 kts 300°
2026-05-07 15:49 43.61005 24.88400 36031 ft 422 kts 300°
2026-05-07 15:50 43.63836 24.82096 36035 ft 422 kts 300°
2026-05-07 15:50 43.66944 24.75231 36034 ft 423 kts 300°
2026-05-07 15:51 43.70068 24.68300 36038 ft 423 kts 300°
2026-05-07 15:51 43.73171 24.61375 36048 ft 424 kts 300°
2026-05-07 15:52 43.76443 24.54579 36039 ft 427 kts 307°
2026-05-07 15:52 43.80316 24.48300 36050 ft 428 kts 308°
2026-05-07 15:53 43.84189 24.42074 36060 ft 429 kts 308°
2026-05-07 15:53 43.88063 24.35790 36060 ft 430 kts 308°
2026-05-07 15:54 43.91950 24.29465 36052 ft 430 kts 308°
2026-05-07 15:54 43.95796 24.23187 36048 ft 429 kts 308°
2026-05-07 15:55 43.99681 24.16869 36046 ft 430 kts 308°
2026-05-07 15:55 44.03567 24.10534 36045 ft 430 kts 308°
2026-05-07 15:56 44.07442 24.04185 36051 ft 430 kts 308°
2026-05-07 15:56 44.11320 23.97828 36060 ft 431 kts 308°
2026-05-07 15:57 44.15194 23.91449 36057 ft 431 kts 308°
2026-05-07 15:57 44.19031 23.85109 36052 ft 430 kts 308°
2026-05-07 15:58 44.22893 23.78728 36057 ft 430 kts 307°
2026-05-07 15:58 44.26724 23.72390 36052 ft 431 kts 307°
2026-05-07 15:59 44.30583 23.65982 36054 ft 431 kts 307°
2026-05-07 15:59 44.34445 23.59551 36055 ft 431 kts 307°
2026-05-07 16:00 44.38307 23.53112 36047 ft 430 kts 307°
2026-05-07 16:00 44.42121 23.46713 36041 ft 431 kts 307°
2026-05-07 16:01 44.45963 23.40249 36048 ft 431 kts 307°
2026-05-07 16:01 44.49807 23.33789 36051 ft 431 kts 307°
2026-05-07 16:02 44.53614 23.27349 36048 ft 431 kts 307°
2026-05-07 16:02 44.57459 23.20888 36038 ft 431 kts 307°
2026-05-07 16:03 44.61279 23.14489 36052 ft 432 kts 307°
2026-05-07 16:03 44.65140 23.07959 36038 ft 431 kts 306°
2026-05-07 16:04 44.68947 23.01486 36033 ft 432 kts 306°
2026-05-07 16:04 44.72774 22.94977 36027 ft 431 kts 306°
2026-05-07 16:05 44.76601 22.88449 36027 ft 432 kts 306°
2026-05-07 16:05 44.80418 22.81915 36032 ft 432 kts 306°
2026-05-07 16:06 44.84219 22.75407 36032 ft 433 kts 306°
2026-05-07 16:06 44.88031 22.68856 36022 ft 432 kts 306°
2026-05-07 16:07 44.91827 22.62321 36020 ft 432 kts 306°
2026-05-07 16:07 44.95649 22.55716 36023 ft 433 kts 306°
2026-05-07 16:08 44.99362 22.49298 36021 ft 433 kts 306°
2026-05-07 16:08 45.03226 22.42597 36014 ft 433 kts 306°
2026-05-07 16:09 45.07009 22.36021 36008 ft 433 kts 305°
2026-05-07 16:09 45.10811 22.29402 36015 ft 433 kts 305°
2026-05-07 16:10 45.14624 22.22746 36007 ft 434 kts 305°
2026-05-07 16:10 45.18399 22.16135 36013 ft 434 kts 305°
2026-05-07 16:11 45.22192 22.09469 36008 ft 434 kts 305°
2026-05-07 16:11 45.25379 22.03879 36008 ft 434 kts 305°
2026-05-07 16:12 45.29143 21.97249 36007 ft 434 kts 305°
2026-05-07 16:12 45.32946 21.90539 36012 ft 435 kts 304°
2026-05-07 16:13 45.36709 21.83873 36014 ft 435 kts 304°
2026-05-07 16:13 45.40484 21.77175 36006 ft 435 kts 304°
2026-05-07 16:14 45.44266 21.70442 36011 ft 434 kts 304°
2026-05-07 16:14 45.48052 21.63695 36012 ft 435 kts 304°
2026-05-07 16:15 45.51806 21.56996 36013 ft 435 kts 304°
2026-05-07 16:15 45.55575 21.50243 36001 ft 435 kts 304°
2026-05-07 16:16 45.59346 21.43465 35995 ft 435 kts 304°
2026-05-07 16:16 45.63087 21.36735 35986 ft 435 kts 304°
2026-05-07 16:17 45.66842 21.29951 35997 ft 435 kts 304°
2026-05-07 16:17 45.70595 21.23166 35994 ft 435 kts 304°
2026-05-07 16:18 45.74333 21.16391 35991 ft 435 kts 304°
2026-05-07 16:18 45.78044 21.09646 35993 ft 435 kts 304°
2026-05-07 16:19 45.81801 21.02816 36000 ft 435 kts 304°
2026-05-07 16:19 45.85538 20.95984 36000 ft 436 kts 303°
2026-05-07 16:20 45.89248 20.89184 35997 ft 435 kts 304°
2026-05-07 16:20 45.92982 20.82332 35998 ft 435 kts 304°
2026-05-07 16:21 45.96711 20.75472 35996 ft 435 kts 304°
2026-05-07 16:21 46.00412 20.68645 36007 ft 435 kts 304°
2026-05-07 16:22 46.04129 20.61753 36010 ft 436 kts 303°
2026-05-07 16:22 46.07847 20.54845 36013 ft 437 kts 303°
2026-05-07 16:23 46.11586 20.47921 36010 ft 436 kts 303°
2026-05-07 16:23 46.15262 20.41070 36017 ft 436 kts 303°
2026-05-07 16:24 46.18972 20.34139 36013 ft 436 kts 304°
2026-05-07 16:24 46.22719 20.27235 36013 ft 436 kts 303°
2026-05-07 16:25 46.26445 20.20298 36012 ft 436 kts 303°
2026-05-07 16:25 46.30146 20.13389 36010 ft 436 kts 303°
2026-05-07 16:26 46.33862 20.06423 36008 ft 436 kts 303°
2026-05-07 16:26 46.37564 19.99468 36013 ft 436 kts 303°
2026-05-07 16:27 46.41251 19.92527 36020 ft 436 kts 303°
2026-05-07 16:27 46.44950 19.85546 36022 ft 436 kts 303°
2026-05-07 16:28 46.48653 19.78548 36020 ft 436 kts 303°
2026-05-07 16:28 46.52335 19.71560 36019 ft 437 kts 303°
2026-05-07 16:29 46.56004 19.64588 36019 ft 436 kts 303°
2026-05-07 16:29 46.59691 19.57563 36018 ft 437 kts 303°
2026-05-07 16:30 46.63369 19.50543 36018 ft 436 kts 302°
2026-05-07 16:30 46.67048 19.43492 36021 ft 436 kts 302°
2026-05-07 16:31 46.70724 19.36429 36021 ft 437 kts 302°
2026-05-07 16:31 46.74393 19.29363 36010 ft 437 kts 302°
2026-05-07 16:31 46.76210 19.25860 35770 ft 436 kts 302°
2026-05-07 16:32 46.78041 19.22320 35654 ft 437 kts 302°
2026-05-07 16:32 46.81708 19.15227 35779 ft 438 kts 302°
2026-05-07 16:32 46.83526 19.11702 35893 ft 438 kts 302°
2026-05-07 16:33 46.85360 19.08137 36008 ft 438 kts 301°
2026-05-07 16:33 46.89013 19.01027 36013 ft 437 kts 301°
2026-05-07 16:34 46.92671 18.93904 35991 ft 437 kts 301°
2026-05-07 16:34 46.96282 18.86803 36002 ft 437 kts 301°
2026-05-07 16:35 46.99906 18.79643 36002 ft 437 kts 301°
2026-05-07 16:35 47.03544 18.72491 35994 ft 437 kts 301°
2026-05-07 16:36 47.07168 18.65419 35993 ft 436 kts 301°
2026-05-07 16:36 47.10805 18.58258 35992 ft 437 kts 301°
2026-05-07 16:37 47.14412 18.51106 35989 ft 437 kts 300°
2026-05-07 16:37 47.18033 18.43923 35990 ft 437 kts 300°
2026-05-07 16:38 47.21642 18.36742 35994 ft 438 kts 300°
2026-05-07 16:38 47.25245 18.29551 35980 ft 437 kts 300°
2026-05-07 16:39 47.28846 18.22344 35977 ft 437 kts 300°
2026-05-07 16:39 47.32423 18.15159 35969 ft 437 kts 300°
2026-05-07 16:40 47.36021 18.07923 35971 ft 437 kts 300°
2026-05-07 16:40 47.39616 18.00664 35970 ft 438 kts 300°
2026-05-07 16:41 47.43193 17.93428 35971 ft 437 kts 300°
2026-05-07 16:41 47.46772 17.86178 35969 ft 437 kts 299°
2026-05-07 16:42 47.50353 17.78898 35964 ft 437 kts 299°
2026-05-07 16:42 47.53929 17.71609 35958 ft 436 kts 299°
2026-05-07 16:43 47.57497 17.64324 35960 ft 436 kts 299°
2026-05-07 16:43 47.61016 17.57109 35964 ft 436 kts 299°
2026-05-07 16:44 47.64569 17.49802 35961 ft 436 kts 299°
2026-05-07 16:44 47.68121 17.42479 35963 ft 437 kts 299°
2026-05-07 16:45 47.71662 17.35170 35962 ft 436 kts 299°
2026-05-07 16:45 47.75199 17.27832 35962 ft 437 kts 299°
2026-05-07 16:46 47.78742 17.20479 35961 ft 437 kts 299°
2026-05-07 16:46 47.82251 17.13145 35973 ft 436 kts 297°
2026-05-07 16:47 47.84945 17.05217 35976 ft 427 kts 287°
2026-05-07 16:47 47.87296 16.97069 35970 ft 428 kts 287°
2026-05-07 16:48 47.89651 16.88957 35978 ft 429 kts 287°
2026-05-07 16:48 47.92011 16.80839 35985 ft 430 kts 287°
2026-05-07 16:49 47.94386 16.72638 35985 ft 430 kts 287°
2026-05-07 16:49 47.96756 16.64418 35985 ft 431 kts 287°
2026-05-07 16:50 47.99116 16.56214 35990 ft 432 kts 287°
2026-05-07 16:50 48.01486 16.47944 35991 ft 433 kts 287°
2026-05-07 16:51 48.03846 16.39679 35998 ft 435 kts 287°
2026-05-07 16:51 48.06218 16.31351 35998 ft 435 kts 287°
2026-05-07 16:52 48.08582 16.23022 35996 ft 434 kts 286°
2026-05-07 16:52 48.10925 16.14721 35993 ft 434 kts 286°
2026-05-07 16:53 48.13268 16.06411 35995 ft 434 kts 286°
2026-05-07 16:53 48.15599 15.98105 35988 ft 435 kts 286°
2026-05-07 16:54 48.17939 15.89738 35989 ft 435 kts 286°
2026-05-07 16:54 48.20277 15.81358 35989 ft 435 kts 286°
2026-05-07 16:55 48.22584 15.73041 35990 ft 435 kts 286°
2026-05-07 16:55 48.24905 15.64654 35982 ft 434 kts 286°
2026-05-07 16:56 48.27220 15.56258 35984 ft 435 kts 286°
2026-05-07 16:56 48.30674 15.43675 35975 ft 435 kts 286°
2026-05-07 16:57 48.32969 15.35281 35993 ft 436 kts 287°
2026-05-07 16:57 48.35249 15.26917 36000 ft 436 kts 286°
2026-05-07 16:58 48.37531 15.18502 36004 ft 436 kts 286°
2026-05-07 16:58 48.39437 15.11453 35995 ft 436 kts 286°
2026-05-07 16:59 48.41724 15.02977 35996 ft 436 kts 286°
2026-05-07 16:59 48.43996 14.94510 36003 ft 436 kts 286°
2026-05-07 17:00 48.46265 14.86056 36004 ft 435 kts 286°
2026-05-07 17:00 48.48522 14.77604 36001 ft 435 kts 286°
2026-05-07 17:01 48.50762 14.69113 36004 ft 435 kts 286°
2026-05-07 17:01 48.52996 14.60678 36009 ft 435 kts 287°
2026-05-07 17:02 48.55233 14.52219 36010 ft 435 kts 286°
2026-05-07 17:02 48.57485 14.43678 36018 ft 435 kts 287°
2026-05-07 17:03 48.59675 14.35318 36023 ft 434 kts 286°
2026-05-07 17:03 48.61896 14.26804 36021 ft 435 kts 286°
2026-05-07 17:04 48.64106 14.18300 36023 ft 434 kts 286°
2026-05-07 17:04 48.66297 14.09849 36018 ft 433 kts 286°
2026-05-07 17:05 48.68494 14.01330 36021 ft 434 kts 286°
2026-05-07 17:05 48.70676 13.92844 36018 ft 434 kts 287°
2026-05-07 17:06 48.72854 13.84333 36016 ft 434 kts 287°
2026-05-07 17:06 48.75040 13.75764 36029 ft 434 kts 287°
2026-05-07 17:07 48.77151 13.67236 36024 ft 435 kts 285°
2026-05-07 17:07 48.79211 13.58619 36021 ft 434 kts 285°
2026-05-07 17:08 48.81258 13.50020 36027 ft 435 kts 285°
2026-05-07 17:08 48.83330 13.41375 36021 ft 435 kts 285°
2026-05-07 17:09 48.85377 13.32766 36021 ft 435 kts 285°
2026-05-07 17:09 48.87418 13.24117 36019 ft 435 kts 285°
2026-05-07 17:10 48.89462 13.15415 36020 ft 436 kts 285°
2026-05-07 17:10 48.91496 13.06724 36017 ft 436 kts 285°
2026-05-07 17:11 48.93515 12.98069 36027 ft 436 kts 286°
2026-05-07 17:11 48.95540 12.89352 36029 ft 436 kts 286°
2026-05-07 17:12 48.97556 12.80632 36048 ft 437 kts 285°
2026-05-07 17:12 48.99562 12.71940 36030 ft 436 kts 286°
2026-05-07 17:13 49.01556 12.63242 36036 ft 436 kts 286°
2026-05-07 17:13 49.03557 12.54481 36037 ft 436 kts 286°
2026-05-07 17:14 49.05549 12.45734 36037 ft 437 kts 286°
2026-05-07 17:14 49.07517 12.37036 36041 ft 437 kts 286°
2026-05-07 17:15 49.09484 12.28253 36043 ft 437 kts 286°
2026-05-07 17:15 49.11460 12.19453 36035 ft 437 kts 286°
2026-05-07 17:16 49.13430 12.10655 36038 ft 438 kts 286°
2026-05-07 17:16 49.15399 12.01855 36044 ft 437 kts 286°
2026-05-07 17:17 49.17344 11.93084 36041 ft 437 kts 286°
2026-05-07 17:17 49.19283 11.84311 36047 ft 437 kts 286°
2026-05-07 17:18 49.21221 11.75538 36037 ft 437 kts 286°
2026-05-07 17:18 49.23159 11.66709 36043 ft 438 kts 286°
2026-05-07 17:19 49.25090 11.57850 36033 ft 437 kts 286°
2026-05-07 17:19 49.27003 11.49060 36038 ft 438 kts 286°
2026-05-07 17:20 49.28922 11.40184 36037 ft 438 kts 285°
2026-05-07 17:20 49.30831 11.31321 36038 ft 438 kts 286°
2026-05-07 17:21 49.32727 11.22500 36038 ft 437 kts 286°
2026-05-07 17:21 49.34619 11.13630 36045 ft 436 kts 285°
2026-05-07 17:22 49.36504 11.04772 36063 ft 437 kts 286°
2026-05-07 17:22 49.38377 10.95937 36044 ft 438 kts 287°
2026-05-07 17:23 49.40916 10.87427 36051 ft 439 kts 294°
2026-05-07 17:23 49.43657 10.79038 36057 ft 439 kts 294°
2026-05-07 17:24 49.46362 10.70700 36053 ft 440 kts 294°
2026-05-07 17:24 49.49073 10.62252 36066 ft 439 kts 294°
2026-05-07 17:25 49.51773 10.53841 36046 ft 439 kts 294°
2026-05-07 17:25 49.54474 10.45424 36051 ft 439 kts 295°
2026-05-07 17:26 49.57169 10.36964 36048 ft 439 kts 294°
2026-05-07 17:26 49.59871 10.28506 36049 ft 439 kts 295°
2026-05-07 17:27 49.62553 10.20056 36046 ft 439 kts 294°
2026-05-07 17:27 49.65218 10.11636 36055 ft 439 kts 295°
2026-05-07 17:28 49.67886 10.03166 36053 ft 439 kts 294°
2026-05-07 17:28 49.70557 9.94671 36054 ft 439 kts 294°
2026-05-07 17:29 49.73205 9.86217 36044 ft 438 kts 294°
2026-05-07 17:29 49.75854 9.77716 36058 ft 439 kts 294°
2026-05-07 17:30 49.78506 9.69178 36047 ft 439 kts 294°
2026-05-07 17:30 49.81134 9.60693 36059 ft 439 kts 294°
2026-05-07 17:31 49.83770 9.52154 36049 ft 439 kts 294°
2026-05-07 17:31 49.86400 9.43603 36042 ft 438 kts 294°
2026-05-07 17:32 49.89003 9.35107 36048 ft 438 kts 294°
2026-05-07 17:32 49.91176 9.27993 36048 ft 438 kts 294°
2026-05-07 17:33 49.94191 9.18075 36044 ft 438 kts 294°
2026-05-07 17:33 49.96787 9.09527 36047 ft 436 kts 294°
2026-05-07 17:34 49.97226 9.08077 36042 ft 436 kts 294°
2026-05-07 17:34 49.99341 9.00836 36042 ft 436 kts 290°
2026-05-07 17:35 50.01474 8.92092 36053 ft 435 kts 290°
2026-05-07 17:35 50.03615 8.83270 36059 ft 437 kts 290°